Find STARLINK-37686

NORAD ID: 799500921 Int'l Des: 2026-127AD Constellation: starlink operational

現在のビュー

3D地球を読み込み中...

STARLINK-37686について

説明を読み込み中...

次回通過

Passes for default location (London). Set your location on the main map for personalized predictions.

高度履歴

Loading altitude history...

軌道要素

1 99999C 2026127AD 26159.92479167 .01014100 00000-0 959290-4 0 1597
2 99999 53.1612 304.8280 0009066 292.3373 95.8963 16.10622143 17
Epoch: Jun 8, 2026 • Age: 4 hours